Weather History for Louisville Bowman, KY

Change the Weather History Date:

Monday, December 3, 2012

  Actual Average Record
Temperature  
Mean Temperature 68 °F 40 °F  
Max Temperature 74 °F 48 °F 76 °F (1982)
Min Temperature 62 °F 32 °F 13 °F (1966)
Degree Days  
Heating Degree Days 0 25  
Month to date heating degree days 12 73  
Since 1 July heating degree days 947 877  
Cooling Degree Days 3 0  
Month to date cooling degree days 3 0  
Year to date cooling degree days 1854 1444  
Growing Degree Days 18 (Base 50)    
Moisture  
Dew Point 55 °F    
Average Humidity 69    
Maximum Humidity 84    
Minimum Humidity 53    
Precipitation  
Precipitation 0.02 in 0.14 in 2.77 in (1978)
Month to date precipitation 0.14 0.39  
Year to date precipitation 38.68 41.92  
Sea Level Pressure  
Sea Level Pressure 30.13 in    
Wind  
Wind Speed 8 mph (SSW)    
Max Wind Speed 16 mph    
Max Gust Speed 25 mph    
Visibility 10 miles    
Events      
T = Trace of Precipitation, MM = Missing Value Source: NWS Daily Summary

Daily Weather History Graph

Daily Weather History Graph

Search for Another Location

Airport:

Trip Planner

Search our weather history database for the weather conditions in past years. The results will help you decide how hot, cold, wet, or windy it might be!

Date:

Astronomy

Dec. 03, 2012 Rise Set
Actual Time 7:42 AM EST 5:22 PM EST
Civil Twilight 7:13 AM EST 5:51 PM EST
Nautical Twilight 6:40 AM EST 6:24 PM EST
Astronomical Twilight 6:08 AM EST 6:56 PM EST
Moon 10:06 PM EST (12/3) 11:07 AM EST (12/3)
Length of Visible Light 10h 38m
Length of Day
9h 39m
Waning Gibbous, 78% of the Moon is Illuminated
Dec 3
Waning Gibbous
Dec 6
Last Quarter
Dec 13
New
Dec 20
First Quarter
Dec 28
Full

Hourly Weather History & Observations

Time (EST) Temp. Dew Point Humidity Pressure Visibility Wind Dir Wind Speed Gust Speed Precip Events Conditions
12:53 AM 64.0 °F 57.9 °F 80% 30.16 in 6.0 mi SSW 5.8 mph - 0.02 in   Haze
1:53 AM 63.0 °F 57.9 °F 84% 30.15 in 10.0 mi South 3.5 mph - 0.00 in   Overcast
2:53 AM 64.0 °F 55.9 °F 75% 30.15 in 10.0 mi SSW 4.6 mph - N/A   Overcast
3:53 AM 63.0 °F 55.9 °F 78% 30.15 in 10.0 mi South 4.6 mph - N/A   Overcast
4:53 AM 62.1 °F 55.9 °F 80% 30.14 in 10.0 mi SSE 4.6 mph - N/A   Mostly Cloudy
5:53 AM 63.0 °F 55.9 °F 78% 30.15 in 10.0 mi South 3.5 mph - 0.00 in   Overcast
6:53 AM 62.1 °F 55.9 °F 80% 30.15 in 10.0 mi SSE 3.5 mph - N/A   Overcast
7:53 AM 64.0 °F 55.9 °F 75% 30.16 in 10.0 mi South 3.5 mph - N/A   Overcast
8:53 AM 64.9 °F 55.9 °F 73% 30.17 in 10.0 mi SSW 8.1 mph - N/A   Overcast
9:53 AM 66.0 °F 55.9 °F 70% 30.17 in 10.0 mi SSW 8.1 mph - N/A   Overcast
10:53 AM 68.0 °F 55.9 °F 65% 30.16 in 10.0 mi SW 9.2 mph 17.3 mph N/A   Overcast
11:53 AM 70.0 °F 57.0 °F 63% 30.14 in 10.0 mi SSW 10.4 mph 21.9 mph N/A   Mostly Cloudy
12:53 PM 72.0 °F 57.0 °F 59% 30.12 in 10.0 mi SW 16.1 mph 19.6 mph N/A   Clear
1:53 PM 72.0 °F 55.9 °F 57% 30.10 in 10.0 mi SW 11.5 mph 19.6 mph N/A   Clear
2:53 PM 73.0 °F 55.0 °F 53% 30.09 in 10.0 mi SSW 11.5 mph 21.9 mph N/A   Clear
3:53 PM 72.0 °F 54.0 °F 53% 30.08 in 10.0 mi SSW 11.5 mph 18.4 mph N/A   Partly Cloudy
4:53 PM 71.1 °F 54.0 °F 55% 30.09 in 10.0 mi SSW 8.1 mph - N/A   Clear
5:53 PM 69.1 °F 54.0 °F 58% 30.10 in 10.0 mi South 5.8 mph - N/A   Clear
6:53 PM 68.0 °F 53.1 °F 59% 30.10 in 10.0 mi South 8.1 mph - N/A   Clear
7:53 PM 66.9 °F 53.1 °F 61% 30.09 in 10.0 mi South 8.1 mph - N/A   Clear
8:53 PM 66.0 °F 52.0 °F 60% 30.09 in 10.0 mi South 6.9 mph - N/A   Clear
9:53 PM 64.9 °F 51.1 °F 61% 30.09 in 10.0 mi South 8.1 mph - N/A   Clear
10:53 PM 64.9 °F 51.1 °F 61% 30.09 in 10.0 mi South 11.5 mph 17.3 mph N/A   Scattered Clouds
11:53 PM 64.9 °F 51.1 °F 61% 30.11 in 10.0 mi South 5.8 mph 16.1 mph N/A   Overcast